RH
7 7 7 8 11 15 16 17 18 22 24 21 19 19 16 15 17 16 15 14 14 14 13 14 13 13 13 12 12 13 13 14 14 16 17 17 16 16 16 15 16 16 17 16 15 16 16 18 18 18 17 17 17 17 17 17 19 20 21 23 27 33 35 36 35 34 33 36 40 43 45 47 47 47 46 46 45 45 45 44 43 42 41 43 46 44 42 42 45 46 44 43 41 41 43 42 41
7 7 7 7 11 15 16 16 21 24 23 18 16 16 14 16 17 14 15 14 13 13 13 13 13 12 12 11 11 11 11 11 11 11 13 13 14 16 16 16 15 16 17 17 17 17 17 18 18 18 17 17 17 17 17 17 18 18 17 18 22 27 29 31 31 30 30 32 35 38 42 45 47 47 47 46 45 44 42 39 37 36 35 38 41 41 39 37 39 40 41 41 40 39 39 38 39
7 7 8 9 13 15 17 18 22 25 20 16 15 16 15 15 14 14 14 13 13 12 13 12 13 12 11 12 10 11 10 9 10 10 11 12 13 14 15 15 15 16 17 17 17 17 18 18 18 19 18 17 17 17 18 18 18 17 16 16 18 21 23 26 26 27 28 29 30 33 36 39 42 42 42 41 39 37 35 32 31 31 32 37 39 41 41 36 33 35 37 37 35 33 30 29 30
7 8 9 11 14 16 20 20 23 26 19 18 17 15 16 14 14 14 13 12 13 13 13 12 12 12 11 12 11 11 10 10 11 11 11 10 11 12 12 13 13 14 15 17 17 18 18 18 19 20 19 18 18 18 18 18 18 17 16 16 16 16 18 20 22 23 25 26 27 28 29 31 33 33 33 32 29 29 29 29 28 29 32 36 39 42 42 37 31 31 32 31 30 26 23 21 20
7 8 10 11 14 15 19 20 23 24 18 20 17 15 17 15 14 13 13 13 13 13 13 13 12 12 12 12 11 11 10 11 11 10 10 9 9 10 11 12 12 12 13 15 16 17 18 18 19 20 20 19 19 18 18 18 18 17 16 16 16 16 15 17 18 20 21 23 23 24 25 26 27 28 29 27 25 26 27 28 27 29 33 36 38 42 43 38 32 31 29 27 26 22 19 17 17
8 9 10 11 12 12 18 19 20 21 19 21 16 15 16 15 14 13 14 14 13 14 13 13 12 12 12 12 11 11 11 11 11 10 9 9 9 9 10 11 11 11 12 13 14 16 17 18 19 20 20 20 19 19 18 18 18 17 17 17 17 16 16 16 17 18 18 20 20 21 22 23 26 27 29 27 24 25 25 26 26 28 32 35 38 40 41 36 32 30 27 24 21 19 17 16 16
11 10 10 13 13 13 20 19 20 21 18 19 16 15 15 14 14 13 14 14 14 14 14 14 13 12 12 12 11 11 11 10 10 10 9 9 9 9 9 9 10 10 10 12 13 14 15 16 17 18 19 20 20 19 19 19 18 17 17 18 18 18 17 17 17 18 18 18 18 19 20 22 25 27 28 27 24 23 24 24 25 28 29 30 32 32 32 29 26 24 21 19 17 17 16 15 15
11 11 10 16 19 19 22 20 22 22 17 16 17 16 15 14 14 14 15 15 15 15 15 14 14 14 13 12 11 11 11 11 10 10 9 10 9 9 9 9 10 9 9 10 11 13 13 14 16 17 18 19 19 20 20 20 19 18 17 18 18 19 19 19 19 20 20 19 19 19 19 21 24 27 27 27 24 20 22 22 23 27 25 23 24 24 24 23 21 18 15 15 14 14 13 13 13
10 11 11 16 20 23 23 20 20 19 18 17 16 16 14 15 16 16 16 15 15 15 15 15 15 16 15 14 13 12 11 12 11 10 10 9 10 9 9 9 10 10 9 9 10 11 12 13 13 15 16 17 18 19 20 20 20 19 19 18 18 18 18 19 20 21 22 21 21 20 21 22 23 26 27 27 24 20 20 21 21 22 21 21 22 22 22 21 20 15 13 13 12 11 10 10 10
10 10 11 16 20 22 21 20 19 16 17 18 16 16 15 16 17 17 16 15 15 14 15 15 15 16 16 15 14 13 13 13 12 11 10 10 10 9 9 9 10 10 10 10 10 10 11 12 12 13 15 15 16 17 19 19 20 20 20 20 19 19 17 16 17 20 22 22 22 22 22 23 23 24 28 28 25 21 20 21 19 18 18 19 19 19 19 18 17 14 12 12 10 9 9 9 9
11 10 11 18 20 18 17 18 20 19 19 18 16 17 16 17 16 16 17 16 15 14 15 15 15 15 15 15 15 15 14 14 14 12 11 10 10 10 10 10 10 10 10 10 10 10 10 11 12 12 13 14 14 15 16 18 19 20 20 21 21 20 18 16 15 16 19 21 22 23 23 23 23 23 27 30 28 24 22 22 19 17 17 17 16 16 16 15 13 12 12 11 10 8 8 9 9
12 14 17 19 16 14 17 17 19 22 22 19 16 16 17 17 16 16 16 15 15 14 15 15 15 15 15 15 14 15 16 16 16 14 12 11 10 10 10 10 10 10 10 10 10 10 10 11 11 11 12 13 14 14 14 15 16 18 19 20 21 20 20 18 16 16 17 19 20 21 22 23 23 25 28 30 31 29 25 24 22 20 19 19 17 13 14 15 12 12 12 10 9 9 9 9 9
12 16 19 17 16 16 17 18 19 23 23 18 16 16 17 16 16 16 15 16 15 15 15 15 15 14 15 15 14 15 16 17 16 14 13 12 11 11 10 10 10 10 10 10 10 10 10 11 11 11 11 12 12 13 14 14 15 15 16 17 19 19 19 19 18 17 17 18 18 19 21 21 22 25 29 29 31 32 29 27 25 23 24 23 19 13 14 16 13 12 11 9 9 9 9 10 10
11 14 16 14 18 19 18 19 21 22 20 18 18 16 17 17 17 16 16 16 16 16 15 15 15 14 14 14 14 15 15 16 16 14 13 12 12 11 11 10 10 10 10 10 10 10 11 10 11 11 11 11 12 12 13 13 14 14 14 15 16 17 17 17 17 17 17 18 17 18 19 20 22 23 27 29 30 33 32 29 27 26 25 24 19 13 13 14 12 11 10 9 10 10 10 10 12
11 13 17 16 19 21 19 19 22 22 19 20 18 16 17 18 18 18 17 17 17 16 16 16 15 15 15 14 14 14 14 15 15 15 15 13 12 12 11 11 11 10 10 10 10 10 10 10 11 11 11 11 11 11 12 12 13 13 13 14 14 15 16 16 16 16 16 17 17 18 18 19 22 23 25 28 29 31 30 27 25 25 24 21 17 13 12 13 12 11 10 10 11 11 11 12 13
11 13 19 18 17 19 19 19 24 24 20 20 18 17 19 19 19 19 18 18 18 18 17 16 15 15 15 15 15 15 15 14 15 15 15 15 13 12 12 11 11 11 11 10 10 11 11 11 11 11 11 11 11 11 11 12 12 13 14 14 14 14 14 14 15 15 16 16 16 17 18 19 22 23 25 29 29 28 25 22 21 22 21 19 16 13 12 12 12 11 11 11 12 12 12 13 14
10 14 20 18 17 19 21 20 21 21 19 19 18 18 20 20 20 19 19 19 19 19 18 17 16 15 15 15 15 16 16 15 15 16 16 16 15 14 13 12 12 12 12 11 11 11 11 12 11 11 11 11 11 11 12 12 12 13 14 14 14 14 14 14 14 15 15 16 16 16 17 17 21 24 27 29 29 28 25 20 18 19 19 18 16 13 12 12 12 12 12 12 12 13 13 14 15
12 19 20 17 21 22 22 19 16 18 18 18 18 18 20 20 20 19 20 20 20 21 19 18 17 16 15 15 15 16 17 16 16 16 16 16 16 16 15 15 14 14 14 13 13 13 13 13 13 12 12 11 11 12 12 12 12 13 13 14 14 15 15 15 14 15 15 16 16 17 17 17 19 22 26 27 28 27 25 21 18 18 19 17 16 14 13 12 13 13 13 13 13 13 13 15 16
15 22 19 21 26 21 19 18 16 17 17 17 17 19 20 21 21 21 21 22 22 22 21 19 18 17 16 15 15 16 17 17 17 16 16 16 16 16 16 16 16 17 16 16 16 16 16 15 15 14 13 13 12 12 12 12 13 13 13 14 14 15 15 16 16 15 15 16 16 16 17 18 20 23 25 25 26 26 25 22 19 18 18 17 17 14 12 12 12 12 12 12 12 12 12 14 14
16 20 21 26 27 21 18 18 17 17 17 18 19 20 21 21 22 22 22 23 23 23 22 21 20 19 18 17 16 16 17 17 17 17 16 15 15 15 15 15 15 16 16 17 17 16 17 17 17 17 16 16 15 14 13 13 13 13 14 14 15 15 15 16 17 16 16 16 17 17 16 18 20 24 27 28 29 28 26 23 19 17 16 18 17 15 12 11 11 11 11 11 11 11 12 13 13
19 21 24 26 23 21 20 18 19 18 18 19 20 21 22 22 22 22 23 24 24 23 23 22 21 21 20 20 18 17 16 16 17 17 17 17 16 16 15 15 14 15 15 16 16 16 17 17 18 18 19 19 19 19 17 17 16 16 15 15 15 16 15 16 16 16 16 16 17 17 16 17 19 23 27 30 32 31 27 23 18 16 15 16 16 14 13 12 12 12 12 11 12 12 12 13 13
20 22 22 22 20 21 19 19 20 19 20 20 21 23 23 23 23 24 24 24 24 23 23 23 22 22 21 21 20 19 17 17 17 17 18 18 18 18 17 16 16 16 16 16 16 17 17 17 18 18 19 20 20 21 21 21 21 20 19 18 18 18 17 17 17 17 16 17 17 17 16 16 17 20 25 30 31 29 25 20 17 16 16 16 16 15 13 12 12 12 12 12 12 12 12 13 14
21 22 21 20 20 21 20 20 21 20 21 22 23 24 23 24 24 24 24 23 23 22 22 22 23 23 21 20 20 20 20 19 18 18 18 18 19 18 18 17 17 17 17 17 17 17 17 18 18 19 19 20 20 21 21 23 23 23 23 22 22 21 19 19 18 18 17 17 17 18 18 17 17 19 22 25 27 25 22 19 17 17 17 17 17 16 14 13 13 13 12 12 12 12 12 13 14
22 23 22 21 21 21 21 21 21 22 22 22 23 23 23 24 24 24 23 22 22 22 22 22 22 23 22 20 20 20 20 20 20 20 20 20 19 19 19 18 18 18 18 18 18 18 18 18 18 19 20 20 21 21 21 22 22 24 25 25 25 24 23 22 21 20 20 19 18 19 19 18 18 20 22 23 24 24 22 20 18 17 17 17 18 17 16 14 13 13 13 12 13 12 12 13 14
23 23 21 20 20 20 21 21 22 22 22 22 23 23 24 24 24 25 24 22 22 22 23 22 22 22 21 21 21 20 20 20 20 20 20 20 20 21 21 21 21 21 20 20 19 19 19 19 19 20 20 21 21 22 22 21 22 23 24 25 25 26 26 26 25 24 23 22 22 21 21 20 19 21 25 26 27 26 24 23 21 19 18 18 18 18 17 16 14 14 14 13 13 13 13 13 14
22 22 21 21 21 21 22 23 23 22 22 23 23 24 24 25 25 26 24 23 23 23 23 22 22 21 21 21 21 21 21 21 20 21 21 22 22 22 23 23 24 23 23 23 22 21 20 20 20 20 21 22 23 23 23 22 23 23 24 26 27 28 28 28 28 28 27 26 25 24 24 23 22 23 26 28 29 28 26 26 24 23 21 19 19 19 18 17 16 14 14 14 13 13 13 13 14
23 22 22 23 23 23 24 24 23 23 24 24 25 26 26 25 25 26 25 24 24 24 24 23 22 21 22 22 21 22 22 22 23 22 22 23 23 23 23 23 24 24 25 25 25 24 23 22 22 21 21 22 23 24 24 24 25 26 27 28 30 31 31 31 31 31 31 30 29 28 27 26 25 26 28 30 30 30 30 28 28 26 24 22 21 21 21 19 17 15 15 14 14 14 13 13 13
24 24 24 24 25 25 25 25 25 25 25 25 26 26 26 25 26 26 24 25 25 25 24 24 23 22 22 22 22 22 23 25 26 26 25 25 24 24 24 24 24 24 25 25 25 25 25 24 23 23 23 23 24 25 27 27 27 28 29 31 32 33 34 35 35 34 34 34 33 32 31 29 28 28 28 29 30 31 32 31 30 28 27 27 25 24 24 23 20 17 15 14 14 13 13 13 13
25 25 26 28 29 28 26 26 26 25 25 25 25 26 26 26 27 26 25 25 26 26 26 25 24 24 23 23 24 24 26 28 28 28 28 27 26 25 25 25 25 25 25 25 25 25 26 25 24 24 24 24 25 26 28 30 30 31 32 34 35 36 37 38 38 38 38 38 38 37 36 34 32 30 30 29 30 31 32 32 31 30 30 31 30 29 28 26 23 20 17 15 15 14 14 14 14
27 28 29 30 31 30 28 27 26 25 26 25 25 28 28 28 27 26 26 26 26 26 26 26 26 26 26 27 27 27 29 30 30 29 29 28 27 27 27 27 27 27 27 27 26 25 25 26 26 26 26 25 25 26 29 32 33 34 35 36 38 39 40 40 40 41 41 41 42 41 41 39 37 35 34 33 33 33 32 32 31 31 32 33 33 33 32 31 28 24 20 16 15 15 15 15 14
30 31 34 35 33 34 31 28 29 28 28 27 28 31 31 28 27 26 27 27 27 27 27 28 29 30 30 30 30 30 31 31 30 29 28 28 28 29 28 28 28 27 27 27 27 26 26 26 27 27 27 27 27 26 29 32 34 36 38 39 40 41 41 42 42 42 42 42 43 44 44 44 43 41 40 39 37 35 34 34 33 34 34 35 35 35 34 33 31 29 24 19 16 16 16 16 15
37 34 40 42 36 37 35 30 31 31 30 30 30 33 32 30 29 28 28 29 29 29 30 31 32 33 32 32 32 32 32 31 30 29 29 29 29 29 29 28 28 27 27 27 27 27 27 27 29 30 30 30 29 28 29 31 34 37 39 40 40 41 42 42 43 43 43 43 44 45 46 47 47 47 46 44 42 39 37 36 36 37 37 37 37 36 36 35 34 32 28 23 20 18 17 17 16
43 38 40 44 38 37 36 31 31 31 30 30 30 32 32 32 31 30 31 30 29 30 32 33 34 34 34 34 33 33 34 32 31 31 30 29 29 29 29 28 29 29 28 28 28 28 28 29 30 31 31 31 30 30 30 32 35 38 40 41 42 42 43 43 44 44 44 45 45 46 47 48 49 50 49 48 47 45 43 40 39 38 39 39 39 39 38 36 35 35 32 29 27 24 21 19 18
46 42 40 43 41 38 37 34 32 30 30 30 30 31 31 32 31 31 31 30 29 31 32 33 35 36 36 35 35 35 35 33 32 32 31 29 29 28 28 28 29 29 29 29 29 29 29 30 31 32 32 32 32 32 32 34 37 40 42 43 43 43 43 44 44 45 46 47 47 48 49 49 50 51 51 51 50 49 48 46 44 42 40 40 40 40 40 39 38 37 37 35 34 31 28 24 21
46 46 44 45 43 40 38 38 34 32 32 33 32 33 34 34 33 33 32 31 31 33 33 34 35 36 36 36 36 37 36 34 34 34 32 31 29 28 28 28 28 29 30 31 31 31 30 30 31 31 32 32 32 32 32 35 37 40 42 44 44 44 44 44 45 45 47 47 48 48 49 49 50 51 51 52 52 51 50 49 48 47 44 42 40 40 41 40 41 41 41 40 39 37 34 30 27
47 47 46 46 45 42 40 39 38 35 35 35 35 35 36 36 35 34 34 32 33 35 36 36 37 36 35 36 37 38 37 37 37 36 34 31 30 29 28 27 27 27 28 29 30 30 31 31 31 30 31 31 31 31 31 33 35 38 41 44 46 46 46 46 46 46 47 47 48 48 48 48 48 49 50 50 51 52 51 51 50 49 48 46 44 43 42 41 41 42 43 43 42 40 38 35 32
47 47 48 47 46 44 41 41 41 38 37 38 38 37 37 36 35 35 34 33 35 37 39 40 39 38 37 37 39 39 40 40 39 36 34 32 31 30 28 27 27 27 28 28 29 29 29 29 29 29 30 31 31 31 31 32 33 35 38 41 44 46 47 47 47 47 47 47 48 47 47 48 48 48 49 50 50 51 51 51 50 49 48 48 47 46 44 43 42 43 43 43 43 42 40 39 36
47 47 47 47 46 44 42 43 43 40 39 40 38 35 36 35 34 35 35 36 38 39 41 42 42 41 41 41 41 42 41 40 39 36 34 32 31 30 29 27 27 28 28 29 29 29 28 28 27 27 28 29 29 30 31 31 32 34 35 37 39 41 43 44 44 44 44 44 45 45 46 46 46 47 47 48 49 49 50 50 50 49 48 47 47 47 46 46 45 45 44 45 45 44 43 42 39
48 48 47 47 47 46 45 45 44 40 38 40 38 34 34 34 34 37 39 41 42 42 42 43 43 43 43 43 43 43 42 41 39 37 35 33 33 31 29 28 29 29 30 31 31 31 30 29 27 27 28 29 30 31 31 31 32 32 33 34 35 35 36 37 37 38 39 39 39 40 41 42 42 43 45 45 46 47 47 48 48 49 48 48 47 47 47 47 47 47 47 47 47 46 46 44 43
49 49 48 48 48 46 46 45 44 41 38 38 37 35 35 34 35 39 41 43 45 44 43 43 43 43 43 42 41 41 40 40 39 37 35 34 34 33 32 32 32 33 33 33 33 32 32 31 30 29 29 30 32 32 33 34 34 34 34 34 34 34 34 34 35 35 35 35 35 36 36 37 37 38 40 41 43 45 46 47 48 48 49 49 49 48 48 48 48 48 48 49 48 48 48 47 46
53 52 50 48 47 46 45 45 44 43 43 41 37 38 39 36 37 40 42 44 46 45 44 43 42 41 41 40 39 39 39 39 37 36 34 34 34 33 32 33 34 34 34 34 34 34 34 33 32 32 32 32 33 34 34 35 35 36 36 36 36 36 35 35 34 34 33 32 32 34 35 36 35 35 36 37 38 40 42 44 45 47 48 50 50 50 50 50 49 49 49 49 49 49 48 48 47
54 54 50 47 46 47 46 45 44 44 47 44 40 43 45 40 39 42 43 45 46 45 44 43 41 40 39 39 39 38 37 36 35 34 33 33 33 32 32 33 34 34 34 34 34 35 35 34 34 34 34 34 35 35 36 36 36 36 36 35 36 36 35 34 34 33 33 32 31 31 32 34 36 37 37 37 37 38 39 40 41 43 45 48 49 50 50 51 51 50 50 50 50 50 49 48 47
53 54 52 49 47 47 48 45 44 47 49 45 42 45 45 39 38 42 43 44 45 45 44 43 42 40 39 38 38 37 36 35 33 32 31 32 31 31 31 32 33 34 33 33 34 34 35 35 34 34 34 35 36 37 38 38 39 38 38 37 37 36 35 34 34 33 33 32 31 30 30 32 34 36 37 38 38 38 39 40 41 42 43 45 47 49 50 51 51 51 51 51 51 51 50 48 48
55 54 52 51 48 47 48 47 47 50 49 48 49 49 44 38 36 40 41 42 44 44 45 43 41 41 39 39 38 37 36 35 34 33 32 31 31 31 31 32 33 34 34 33 34 35 35 35 35 35 35 36 37 39 40 41 41 41 41 41 41 40 39 38 36 34 33 33 32 31 31 32 33 35 37 38 39 39 39 40 41 42 44 45 47 49 50 50 52 52 52 52 51 51 51 49 49
54 54 52 51 50 51 53 52 52 53 50 49 52 51 49 43 38 41 40 40 43 44 45 45 43 43 42 40 40 38 37 35 34 34 32 30 30 31 32 33 34 34 35 34 35 35 35 35 36 35 36 36 37 38 39 40 42 43 43 43 43 43 43 43 41 39 37 35 34 33 32 32 33 34 36 38 39 39 39 39 39 40 42 44 46 48 49 50 52 53 53 53 53 52 52 51 50
52 54 55 57 57 57 59 58 57 59 54 48 50 53 52 45 39 42 41 40 43 46 48 48 47 47 44 43 41 40 39 37 35 35 33 32 32 33 34 35 35 36 36 37 36 36 35 34 34 34 34 34 35 36 36 37 38 40 42 43 44 44 44 44 44 43 41 39 37 36 34 33 33 34 36 37 38 39 39 38 38 38 38 40 41 44 46 48 50 52 54 55 55 54 54 53 51
51 55 58 61 64 63 65 65 61 61 55 47 49 52 51 48 42 42 43 43 46 48 50 52 51 50 47 45 43 42 41 39 37 35 35 36 36 35 35 36 37 38 38 39 39 39 38 35 33 32 31 32 32 34 34 35 35 36 38 41 43 44 45 45 44 44 44 43 42 41 38 35 34 35 37 39 40 41 40 40 39 38 38 38 38 39 41 43 45 48 50 52 54 55 56 55 54
56 60 62 64 67 66 68 67 63 63 56 50 54 52 50 50 44 42 45 47 47 49 51 53 53 51 49 47 45 44 42 40 38 36 36 37 38 38 37 37 38 39 41 43 43 43 42 41 37 33 32 32 34 35 35 36 36 36 37 40 42 43 44 45 45 46 46 45 45 45 43 40 37 37 38 39 41 42 42 42 42 41 40 40 40 40 40 41 41 43 44 46 47 49 51 53 54
60 62 64 67 68 67 68 66 65 65 56 52 55 53 51 48 43 46 49 48 49 49 50 52 53 52 50 47 46 43 41 39 38 37 37 39 41 43 42 41 41 41 42 44 45 44 43 44 43 39 36 34 36 37 38 38 38 36 35 37 40 41 42 43 44 46 46 47 47 47 48 47 44 42 41 40 40 41 42 42 43 43 43 44 43 43 44 44 44 44 45 45 45 46 47 48 50
59 59 63 67 68 71 72 68 67 65 57 54 54 54 54 47 43 50 51 49 52 50 50 53 53 52 51 47 45 42 41 39 39 39 40 40 43 45 46 45 44 45 45 45 46 45 42 40 42 43 42 39 38 38 40 41 41 38 36 35 36 37 37 38 39 41 43 45 46 47 48 48 47 45 43 40 38 37 37 37 38 39 40 42 44 45 46 47 48 49 50 49 49 49 49 49 49
57 59 60 61 62 69 71 66 65 64 57 53 53 55 56 48 45 50 50 49 52 52 53 54 53 52 50 46 44 42 41 41 41 42 43 43 43 45 47 46 46 48 48 47 47 49 48 46 43 42 41 39 39 39 40 40 40 39 36 34 35 35 34 33 32 32 34 36 39 42 44 44 43 42 39 35 32 31 32 31 31 32 32 33 36 39 42 45 48 50 52 54 54 54 53 53 52
59 61 60 58 59 62 67 66 64 63 62 56 53 55 54 49 48 48 48 50 52 53 53 53 53 51 48 46 44 43 42 43 43 45 45 45 45 46 47 47 47 48 49 48 47 47 48 49 49 45 42 41 42 41 40 39 39 38 34 31 30 31 29 28 27 25 25 26 28 31 34 35 36 36 34 30 28 27 27 27 27 28 28 27 27 28 31 35 39 43 47 51 53 55 56 56 56
60 59 57 61 63 62 68 72 67 67 72 64 54 54 55 54 53 49 50 52 51 51 50 49 47 45 44 45 44 43 44 45 46 48 47 47 47 48 48 48 48 48 47 48 48 48 48 51 53 51 46 46 49 47 44 41 37 33 29 28 28 28 26 24 22 21 21 22 22 23 24 25 26 26 25 25 25 26 26 27 27 26 26 26 25 25 25 26 29 33 38 42 46 49 52 55 57
61 61 60 65 69 68 73 78 76 77 83 74 59 56 57 56 55 53 53 52 49 47 46 44 42 43 45 46 45 45 46 47 47 48 48 49 50 51 50 49 49 48 47 47 48 49 49 50 52 52 50 52 54 54 51 46 37 32 29 28 27 25 23 20 18 18 18 18 19 19 18 18 17 17 18 19 20 21 23 25 26 27 26 26 25 25 25 25 26 28 31 34 38 41 44 47 50
64 67 66 68 72 74 76 80 82 83 86 81 69 60 57 56 54 53 52 49 47 45 44 44 44 45 47 47 46 46 47 47 47 48 49 50 50 51 51 52 51 51 51 52 52 51 52 53 53 54 54 54 51 48 45 41 36 31 27 24 21 19 17 16 15 15 15 14 14 15 14 14 13 13 14 15 16 17 18 20 22 24 26 26 25 24 24 24 25 26 28 31 34 37 39 41 43
67 68 69 71 73 75 76 78 80 82 84 83 75 65 59 55 52 50 50 47 45 45 47 49 49 48 49 49 49 49 50 51 51 52 52 52 53 55 57 58 59 59 58 58 57 55 54 52 49 45 42 39 36 32 29 27 24 21 19 16 15 14 14 15 15 15 14 14 13 14 14 13 13 12 12 12 13 13 14 16 19 21 23 24 24 23 22 21 21 22 24 27 30 33 36 38 40
69 70 72 73 72 75 79 77 75 79 81 79 76 69 60 54 50 49 48 47 46 47 48 48 48 48 49 49 51 51 51 52 52 52 53 52 53 55 56 56 56 54 51 49 47 45 42 39 36 32 29 26 23 21 18 16 15 15 16 17 17 17 16 16 15 15 14 13 13 13 12 12 12 12 12 11 11 11 12 13 15 18 20 21 21 21 20 19 18 18 19 21 23 26 28 31 35
73 75 74 74 74 76 80 77 69 68 72 71 71 69 59 51 49 49 46 44 44 45 45 45 46 48 50 53 54 54 54 55 55 56 56 56 56 55 53 52 49 47 45 42 38 34 30 27 26 24 22 21 18 16 15 14 14 15 17 18 19 18 17 16 15 15 15 15 14 14 13 13 13 13 13 12 12 12 12 12 12 13 14 15 16 16 15 15 15 15 16 17 19 21 23 24 26